Regional Weather Roundup
Issued by NWS

Home | Current Version | Previous Version | Text Only | Print | Product List | Glossary On
Versions: 1 2 3 4 5 6 7 8 9 10 11 12 13 14 15 16 17 18 19 20 21 22 23 24 25 26 27 28 29 30 31 32 33 34 35 36 37 38 39 40 41 42 43 44 45 46 47 48 49 50
532
ASUS42 KFFC 231310
RWRGA
WEATHER ROUNDUP FOR GEORGIA
NATIONAL WEATHER SERVICE PEACHTREE CITY GA
900 AM EDT FRI JUN 23 2017

NOTE: "FAIR" INDICATES FEW OR NO CLOUDS BELOW 12,000 FEET WITH NO
SIGNIFICANT WEATHER AND/OR OBSTRUCTIONS TO VISIBILITY.

* = USE WITH CAUTION. THE STATIONS MARKED WITH AN ASTERISK MAY NOT
REPORT WEATHER SUCH AS PRECIPITATION, FOG, OR THUNDER AND ARE NOT
QUALITY CONTROLLED BY NWS.

THE REMARK "TC" DENOTES TEMPERATURE READING IN DEGREES CELSIUS.

GAZ001>058-231400-
NORTH GEORGIA

CITY           SKY/WX    TMP DP  RH WIND       PRES   REMARKS
ATLANTA        PTSUNNY   76  72  87 S10       30.02S
ATHENS         SUNNY    N/A N/A N/A MISG      30.03S HAZE
CHAMBLEE       SUNNY     77  71  82 S5        30.02S
PEACHTREE CITY SUNNY     75  73  93 S7        30.02S
ROME           CLOUDY    76  74  93 S8        29.97S
WEST ATLANTA   MOSUNNY   77  73  87 S9        30.01S
GAINESVILLE    MOSUNNY   76  71  85 SW6       30.05S
CARTERSVILLE   CLOUDY    75  73  93 S8        29.99F


CITY           SKY/WX    TMP DP  RH WIND       PRES   REMARKS
DALTON*        CLOUDY    73  72  94 SE6       29.98F
LAWRENCEVILLE* MOSUNNY   75  72  88 SW7       30.04S FOG
MARIETTA       PTSUNNY   76  71  84 S7        30.02S
CANTON*        MOSUNNY   75  75 100 CALM      30.04S
$$

GAZ059>098-102>109-231400-
CENTRAL GEORGIA

CITY           SKY/WX    TMP DP  RH WIND       PRES   REMARKS
AUGUSTA-BUSH   MOSUNNY   81  75  82 SW9       30.03S
AUGUSTA-DANIEL MOSUNNY   80  72  76 SW7       30.05R
COLUMBUS       CLOUDY    76  73  91 S8        30.02S
MACON          CLOUDY    76  74  93 SW12      30.04R
ROBINS AFB     PTSUNNY   77  75  94 SW5       30.03S


CITY           SKY/WX    TMP DP  RH WIND       PRES   REMARKS
LAGRANGE*      CLOUDY    77  76  96 S9        30.02S
SYLVANIA*      PTSUNNY   80  78  94 CALM      30.06S
MILLEDGEVILLE* CLOUDY    77  77 100 SW5       30.04S
$$

GAZ099>101-110>166-231400-
SOUTH GEORGIA

CITY           SKY/WX    TMP DP  RH WIND       PRES   REMARKS
SAVANNAH       PTSUNNY   82  73  74 S9        30.07R
VALDOSTA       MOSUNNY   80  75  84 S9        30.06R
ALMA           MOSUNNY   80  75  84 S7        30.06R
ST SIMONS      SUNNY     82  74  76 SW10      30.07R
FT STEWART     PTSUNNY   81  73  78 S3        30.05R
ALBANY         CLOUDY    80  77  90 SW7       30.06R
HUNTER AFB     MOSUNNY   82  74  77 S9        30.04R
MOODY AFB      MOSUNNY   79  75  87 S5        30.05R
BRUNSWICK      SUNNY     82  77  83 S6        30.08R HX  91


CITY           SKY/WX    TMP DP  RH WIND       PRES   REMARKS
BAINBRIDGE*    PTSUNNY   86  82  89 S3        30.04S HX 105
MOULTRIE*      CLOUDY    77  77 100 CALM      30.07R FOG
VIDALIA*       CLOUDY    77  77 100 SW3       30.06S
DOUGLAS*       MOSUNNY   79  75  89 SW3       30.07S
$$




USA.gov is the U.S. government's official web portal to all federal, state and local government web resources and services.